Simultaneous Nadir Overpasses (SNOs) Predictions

Prediction of SNOs between METOP-B and NOAA-19 Satellite Orbit:

Table of predicted SNOs for the next 14.0 days since TLE Epoch: 9/8/2017
Index Date (METOP-B) Time (METOP-B) Lat,Lon (METOP-B) SZA (METOP-B ) Date (NOAA-19) Time (NOAA-19) Lat,Lon (NOAA-19) SZA (NOAA-19 ) Distance(km) Time Diff (sec)
1 09/08/2017 17:57:02 77.57, -83.28 72.17 09/08/2017 17:55:52 77.56, -83.40 72.15 3.12 70
2 09/08/2017 18:47:44 -77.56, 84.00 107.83 09/08/2017 18:46:55 -77.52, 84.02 107.87 3.96 49
3 09/08/2017 19:38:24 77.55,-108.71 72.17 09/08/2017 19:37:53 77.54,-108.81 72.16 2.45 31
4 09/08/2017 20:29:06 -77.54, 58.57 107.83 09/08/2017 20:28:57 -77.54, 58.41 107.83 3.84 9
5 09/08/2017 21:19:46 77.53,-134.15 72.18 09/08/2017 21:19:54 77.52,-134.22 72.17 1.80 8
6 09/08/2017 22:10:28 -77.52, 33.14 107.83 09/08/2017 22:10:58 -77.52, 33.01 107.82 3.17 30
7 09/08/2017 23:01:08 77.51,-159.58 72.18 09/08/2017 23:01:55 77.50,-159.62 72.18 1.17 47
8 09/08/2017 23:51:50 -77.50, 7.70 107.82 09/08/2017 23:52:59 -77.50, 7.60 107.81 2.53 69
9 09/19/2017 12:24:48 77.59, -0.15 76.35 09/19/2017 12:23:33 77.61, -0.27 76.35 3.57 75
10 09/19/2017 13:15:30 -77.59, 167.15 103.65 09/19/2017 13:14:38 -77.59, 167.08 103.66 1.80 52
11 09/19/2017 14:06:10 77.57, -25.58 76.35 09/19/2017 14:05:34 77.59, -25.68 76.37 3.20 36
12 09/19/2017 14:56:52 -77.57, 141.72 103.64 09/19/2017 14:56:39 -77.57, 141.67 103.65 1.15 13
13 09/19/2017 15:47:32 77.55, -51.02 76.36 09/19/2017 15:47:35 77.57, -51.08 76.38 2.97 3
14 09/19/2017 16:38:14 -77.55, 116.29 103.64 09/19/2017 16:38:40 -77.55, 116.27 103.63 0.61 26
15 09/19/2017 17:28:54 77.53, -76.45 76.36 09/19/2017 17:29:36 77.55, -76.49 76.39 2.88 42
16 09/19/2017 18:19:36 -77.52, 90.85 103.64 09/19/2017 18:20:41 -77.53, 90.86 103.62 0.59 65
17 09/19/2017 19:10:23 77.21,-103.21 76.03 09/19/2017 19:11:30 77.25,-100.51 76.16 66.49 67




NCC Satellite Simultaneous Nadir Overpasses (SNOs) Prediction Service
